Powrót do katalogu

ONEWEB-0547

AktywnyŁącznośćPO
NORAD 56049·PAYLOAD·🇬🇧 United Kingdom

Wystrzelony Mar 26, 2023 z Satish Dhawan Space Centre

Loading…

Następne Przeloty (najbliższe 24 godziny)

TLE

ŚwieżeSource: CelesTrak SupGP

Epoka: Sep 14, 2026, 15:49 UTC

1 56049C 23043D   26257.65917083 -.00000969  00000+0 -23491-2 0  2570
2 56049  87.9280 226.1658 0002066  78.2914 346.4437 13.21827111    14

Śledź ONEWEB-0547 w czasie rzeczywistym z AllMySat

Download on the App Store